Burlington, CO

6:02 AM MST on February 19, 2017 (GMT -0700)
Kit Carson County

Weather History for KITR - March, 2014

Change the Weather History Date:

Sunday, March 23, 2014

  Actual Average Record
Temperature  
Mean Temperature 33 °F 42 °F  
Max Temperature 52 °F 57 °F 81 °F (1910)
Min Temperature 13 °F 27 °F 1 °F (1965)
Degree Days  
Heating Degree Days 34    
Moisture  
Dew Point 19 °F    
Average Humidity 74    
Maximum Humidity 91    
Minimum Humidity 36    
Precipitation  
Precipitation 0.00 in 0.03 in 0.55 in (1957)
Month to date precipitation 0.07 0.63  
Year to date precipitation 0.77 1.43  
Sea Level Pressure  
Sea Level Pressure 30.28 in    
Wind  
Wind Speed 11 mph (SSW)    
Max Wind Speed 29 mph    
Max Gust Speed 37 mph    
Visibility 10 miles    
Events      
T = Trace of Precipitation, MM = Missing Value Source: NWS Daily Summary

Daily Weather History Graph

Daily Weather History Graph

Search for Another Location

Airport or City:

Trip Planner

Search our weather history database for the weather conditions in past years. The results will help you decide how hot, cold, wet, or windy it might be!

Date:

Astronomy

Mar. 23, 2014 Rise Set
Actual Time 6:47 AM MDT 7:04 PM MDT
Civil Twilight 6:21 AM MDT 7:30 PM MDT
Nautical Twilight 5:49 AM MDT 8:02 PM MDT
Astronomical Twilight 5:17 AM MDT 8:34 PM MDT
Moon 1:21 AM MDT (3/23) 11:33 AM MDT (3/23)
Length of Visible Light 13h 09m
Length of Day
12h 16m
Waning Gibbous, 54% of the Moon is Illuminated
Mar 23
Waning Gibbous
Mar 23
Last Quarter
Mar 30
New
Apr 7
First Quarter
Apr 15
Full

Hourly Weather History & Observations

Time (MDT) Temp. Windchill Dew Point Humidity Pressure Visibility Wind Dir Wind Speed Gust Speed Precip Events Conditions
12:53 AM 17.1 °F - 12.9 °F 84% 30.52 in 10.0 mi Calm Calm - N/A   Overcast
1:53 AM 16.0 °F - 12.9 °F 88% 30.51 in 10.0 mi Calm Calm - N/A   Overcast
2:53 AM 15.1 °F - 12.9 °F 91% 30.49 in 10.0 mi Calm Calm - N/A   Overcast
3:24 AM 15.1 °F 6.4 °F 12.0 °F 88% 30.36 in 9.0 mi SSW 5.8 mph - N/A   Overcast
3:53 AM 15.1 °F 1.8 °F 12.0 °F 88% 30.49 in 8.0 mi SSW 11.5 mph - N/A   Overcast
4:53 AM 15.1 °F -0.1 °F 12.9 °F 91% 30.48 in 10.0 mi SSW 15.0 mph - N/A   Overcast
5:53 AM 15.1 °F 1.1 °F 12.0 °F 88% 30.48 in 10.0 mi SSW 12.7 mph - N/A   Overcast
6:12 AM 12.9 °F 1.6 °F 10.0 °F 88% 30.33 in 10.0 mi SSW 8.1 mph - N/A   Scattered Clouds
6:19 AM 12.9 °F 2.6 °F 10.0 °F 88% 30.33 in 10.0 mi SSW 6.9 mph - N/A   Mostly Cloudy
6:36 AM 12.9 °F 1.6 °F 10.0 °F 88% 30.33 in 10.0 mi South 8.1 mph - N/A   Mostly Cloudy
6:53 AM 14.0 °F 2.0 °F 10.9 °F 88% 30.46 in 10.0 mi South 9.2 mph - N/A   Overcast
7:53 AM 17.1 °F 2.5 °F 12.9 °F 84% 30.45 in 10.0 mi South 15.0 mph - N/A   Overcast
8:07 AM 17.1 °F 3.6 °F 14.0 °F 88% 30.30 in 10.0 mi South 12.7 mph - N/A   Mostly Cloudy
8:16 AM 17.1 °F 2.0 °F 14.0 °F 88% 30.30 in 10.0 mi South 16.1 mph - N/A   Scattered Clouds
8:53 AM 19.0 °F 3.6 °F 16.0 °F 88% 30.43 in 10.0 mi South 18.4 mph - N/A   Clear
9:53 AM 25.0 °F 10.6 °F 19.9 °F 81% 30.38 in 10.0 mi South 20.7 mph - N/A   Partly Cloudy
10:53 AM 30.0 °F 16.6 °F 25.0 °F 82% 30.36 in 10.0 mi SSW 23.0 mph - N/A   Partly Cloudy
11:17 AM 30.9 °F 17.5 °F 25.0 °F 79% 30.24 in 10.0 mi SSW 24.2 mph 33.4 mph N/A   Mostly Cloudy
11:35 AM 33.1 °F 19.8 °F 26.1 °F 75% 30.22 in 10.0 mi South 26.5 mph 33.4 mph N/A   Scattered Clouds
11:53 AM 34.0 °F 20.5 °F 26.1 °F 73% 30.30 in 10.0 mi SSW 28.8 mph 34.5 mph N/A   Partly Cloudy
12:53 PM 39.9 °F 29.2 °F 26.1 °F 58% 30.25 in 10.0 mi SSW 25.3 mph 34.5 mph N/A   Clear
1:53 PM 41.0 °F 30.5 °F 27.0 °F 57% 30.20 in 10.0 mi SSW 26.5 mph 36.8 mph N/A   Clear
2:53 PM 46.9 °F - 28.9 °F 50% 30.14 in 10.0 mi SSW 25.3 mph 34.5 mph N/A   Clear
3:53 PM 50.0 °F - 28.0 °F 43% 30.08 in 10.0 mi SSW 23.0 mph 34.5 mph N/A   Clear
4:53 PM 51.1 °F - 27.0 °F 39% 30.05 in 10.0 mi South 23.0 mph 32.2 mph N/A   Clear
5:53 PM 51.1 °F - 25.0 °F 36% 30.03 in 10.0 mi SSW 21.9 mph - N/A   Clear
6:53 PM 46.0 °F 40.6 °F 24.1 °F 42% 30.05 in 10.0 mi South 11.5 mph - N/A   Clear
7:53 PM 37.9 °F 30.0 °F 24.1 °F 57% 30.06 in 10.0 mi SSE 12.7 mph - N/A   Clear
8:53 PM 36.0 °F 27.1 °F 24.1 °F 62% 30.07 in 10.0 mi South 13.8 mph - N/A   Clear
9:53 PM 32.0 °F 24.8 °F 23.0 °F 69% 30.07 in 10.0 mi South 8.1 mph - N/A   Clear
10:53 PM 27.0 °F - 21.0 °F 78% 30.07 in 10.0 mi Calm Calm - N/A   Clear
11:53 PM 27.0 °F 20.5 °F 21.0 °F 78% 30.06 in 10.0 mi North 5.8 mph - N/A   Partly Cloudy